Volver al catálogo

STARLINK-30360

ActivoComunicacionesVLEO
NORAD 57776·PAYLOAD·🇺🇸 United States

Lanzado Sep 4, 2023 desde Cape Canaveral Space Force Station

Loading…

Próximos Pases (próximas 24 horas)

TLE

ActualizadoSource: CelesTrak SupGP

Época: Sep 14, 2026, 20:46 UTC

1 57776C 23134F   26257.86576389  .00028075  00000+0  10168-2 0  2575
2 57776  43.0030 206.4099 0001346 261.6578 165.6965 15.27567053    13

Sigue STARLINK-30360 en tiempo real con AllMySat

Download on the App Store